Temp
15 14 14 14 13 13 12 11 10 10 10 10 9 9 9 9 9 8 8 8 9 9 9 8 8 8 9 9 9 9 9 9 9 9 9 9 9 9 9 9 9 9
15 14 14 14 13 13 12 11 11 10 10 10 9 9 9 9 9 8 8 8 8 9 9 8 8 8 8 8 9 9 9 9 9 9 9 9 9 9 9 9 9 9
15 14 14 14 13 13 12 12 11 11 10 10 9 9 9 9 9 8 8 8 8 8 8 8 8 8 8 8 8 8 8 9 9 9 9 9 9 9 8 8 8 9
15 14 14 14 14 13 13 12 11 11 10 10 9 9 9 9 9 8 8 8 8 8 8 8 7 7 7 7 8 8 8 9 9 9 9 9 8 8 8 8 8 8
15 14 14 14 14 14 13 12 11 10 10 10 9 9 9 8 8 8 8 8 8 8 7 7 7 7 7 7 7 8 8 8 8 9 9 8 8 8 8 9 8 8
14 14 14 14 14 14 13 12 11 10 10 10 9 9 8 8 8 8 8 8 8 8 7 7 7 7 7 7 7 8 8 8 8 8 8 8 8 8 8 8 9 8
14 14 14 14 14 14 13 12 11 11 10 9 9 9 8 8 8 8 8 8 8 8 7 7 7 7 7 7 7 8 8 8 8 8 8 8 9 8 8 9 9 8
14 14 14 14 14 14 13 13 12 11 10 9 9 9 8 8 8 8 8 8 8 7 7 7 7 7 7 7 7 8 8 8 8 8 8 8 9 9 9 9 8 8
14 14 14 14 14 14 13 12 12 11 10 9 9 9 8 8 8 8 8 7 7 7 7 7 7 7 7 7 8 8 8 8 8 8 8 9 9 9 8 8 8 8
13 14 14 14 14 14 13 12 12 12 11 10 9 9 9 8 8 8 8 7 7 7 7 7 7 7 7 7 8 8 8 8 8 9 9 9 9 9 8 8 8 8
13 13 14 14 14 14 13 13 12 12 11 10 9 9 9 9 9 8 8 8 8 8 7 7 7 7 7 7 8 8 8 9 9 9 9 9 9 9 9 9 8 8
13 13 13 14 14 14 13 13 13 12 12 10 10 9 9 9 9 8 8 8 8 8 7 7 7 7 7 7 8 8 9 9 9 9 9 9 9 9 9 9 9 9
12 13 13 13 13 14 13 13 13 13 12 11 10 10 10 10 9 9 8 8 8 8 7 7 7 7 7 7 8 8 9 9 9 9 9 9 9 9 9 9 9 9
13 13 13 13 13 13 13 13 13 13 12 12 11 10 10 10 10 9 9 8 8 8 8 7 7 7 7 7 8 8 8 8 8 9 8 8 8 8 8 8 8 8
13 13 12 13 13 13 13 13 13 12 12 12 11 10 10 10 10 10 9 9 8 8 8 7 7 7 7 7 8 8 8 8 8 8 8 8 8 8 8 8 8 8
13 12 12 12 12 13 13 13 13 12 12 12 12 11 10 10 10 10 10 9 9 8 8 8 7 7 7 7 8 8 8 8 8 8 8 8 8 8 8 8 8 8
13 12 12 12 12 12 13 13 13 12 12 12 12 11 11 10 11 11 10 9 9 8 8 8 7 7 7 7 8 8 7 7 7 7 7 7 7 7 7 7 7 7
13 12 12 12 12 12 12 12 12 12 12 12 12 12 11 10 11 11 10 10 9 9 9 8 8 7 7 8 8 8 7 7 7 7 7 7 7 7 7 7 7 7
13 13 12 12 12 12 12 12 12 12 12 12 12 12 11 11 11 11 11 10 10 9 9 8 8 7 7 8 8 8 7 7 7 7 7 7 7 7 7 7 7 7
13 13 13 13 12 12 12 12 12 12 12 12 12 12 12 11 11 11 11 11 10 10 9 9 8 8 7 8 8 8 7 7 7 7 6 7 7 7 6 6 6 6
13 13 13 13 13 12 12 12 12 12 12 12 12 12 12 11 11 11 11 11 11 10 10 9 9 8 8 8 8 8 7 7 7 6 6 6 7 7 6 6 6 6
13 13 13 13 12 12 12 12 12 12 12 12 12 12 12 11 12 11 11 11 11 10 10 9 9 8 8 8 8 8 7 7 7 6 6 6 6 6 6 6 6 6
13 13 13 13 12 12 12 12 12 12 12 12 12 12 12 12 12 12 11 11 11 11 10 10 9 9 8 8 8 8 8 7 7 6 6 6 6 6 6 6 6 6
14 13 13 13 12 12 13 12 12 12 12 12 12 12 12 12 12 11 11 11 11 11 10 10 9 9 9 9 9 8 8 7 7 6 6 6 6 6 6 6 6 6
14 14 13 13 13 13 12 12 12 11 11 11 11 11 11 11 11 11 11 11 11 11 10 10 9 9 9 9 9 9 8 7 7 7 6 6 6 6 6 6 6 6
14 14 13 13 13 13 12 12 12 11 11 11 11 11 11 11 11 11 11 11 10 10 10 10 10 9 9 9 9 9 8 8 7 7 7 7 6 6 6 6 6 6
Height
1557 1557 1556 1556 1556 1556 1556 1555 1555 1555 1555 1555 1554 1554 1553 1553 1552 1551 1551 1551 1551 1551 1551 1551 1551 1551 1551 1551 1550 1550 1550 1549 1548 1548 1547 1547 1547 1546 1546 1546 1546 1546
1556 1556 1556 1555 1555 1555 1555 1554 1554 1554 1554 1554 1554 1553 1553 1552 1551 1551 1551 1551 1551 1551 1551 1551 1551 1551 1551 1550 1550 1550 1550 1549 1548 1548 1547 1547 1546 1546 1546 1546 1546 1546
1555 1555 1555 1554 1554 1554 1554 1554 1554 1554 1554 1553 1553 1553 1552 1552 1551 1550 1550 1551 1551 1551 1551 1551 1551 1551 1551 1551 1550 1550 1549 1549 1548 1547 1547 1546 1546 1546 1546 1546 1546 1546
1554 1554 1554 1554 1553 1553 1553 1553 1553 1553 1553 1553 1553 1552 1552 1552 1551 1550 1551 1551 1551 1551 1550 1550 1551 1551 1551 1550 1550 1550 1549 1549 1548 1547 1547 1546 1546 1546 1546 1546 1546 1546
1552 1553 1553 1553 1553 1553 1553 1553 1553 1553 1552 1552 1552 1552 1552 1551 1551 1551 1551 1551 1551 1551 1550 1550 1551 1551 1550 1550 1550 1549 1549 1548 1548 1547 1547 1546 1546 1546 1546 1546 1546 1546
1551 1552 1552 1552 1552 1552 1552 1552 1552 1552 1552 1552 1551 1551 1551 1551 1551 1550 1551 1551 1551 1551 1551 1551 1551 1550 1550 1550 1549 1549 1548 1548 1547 1547 1547 1547 1546 1546 1546 1546 1546 1546
1549 1550 1551 1551 1551 1551 1551 1551 1551 1551 1551 1551 1551 1550 1550 1550 1550 1550 1550 1550 1550 1550 1550 1550 1550 1550 1550 1549 1549 1548 1548 1547 1547 1547 1547 1547 1546 1546 1546 1546 1546 1545
1548 1549 1549 1550 1550 1550 1551 1550 1550 1550 1550 1550 1550 1549 1549 1549 1549 1549 1549 1550 1550 1550 1550 1550 1550 1550 1549 1549 1548 1548 1547 1547 1547 1547 1546 1546 1546 1546 1546 1545 1545 1545
1547 1547 1547 1548 1549 1549 1550 1549 1549 1549 1549 1549 1549 1548 1548 1548 1548 1548 1549 1549 1549 1549 1550 1550 1550 1549 1549 1548 1548 1547 1547 1547 1546 1546 1546 1546 1546 1545 1545 1545 1545 1545
1545 1545 1546 1547 1548 1548 1548 1548 1548 1548 1548 1548 1548 1548 1547 1547 1547 1547 1548 1548 1549 1549 1549 1549 1549 1549 1549 1548 1547 1547 1546 1546 1546 1545 1545 1545 1545 1545 1545 1545 1545 1545
1543 1543 1544 1545 1547 1547 1547 1547 1547 1547 1547 1547 1547 1547 1546 1546 1546 1546 1547 1548 1548 1548 1549 1549 1549 1549 1548 1548 1547 1546 1546 1545 1545 1545 1545 1545 1544 1545 1545 1545 1545 1545
1541 1542 1543 1544 1545 1546 1546 1546 1546 1546 1547 1546 1546 1546 1546 1545 1545 1546 1546 1547 1547 1548 1548 1549 1549 1549 1548 1548 1547 1546 1546 1545 1545 1545 1545 1545 1545 1544 1544 1545 1545 1545
1539 1540 1541 1542 1543 1544 1545 1545 1545 1545 1546 1546 1545 1545 1545 1545 1545 1545 1546 1546 1547 1547 1548 1548 1548 1548 1548 1547 1547 1546 1546 1545 1545 1545 1545 1545 1545 1545 1545 1545 1545 1545
1538 1539 1540 1541 1542 1543 1543 1544 1544 1544 1545 1545 1544 1544 1544 1544 1544 1545 1545 1546 1546 1547 1547 1547 1548 1548 1548 1547 1547 1546 1546 1546 1546 1546 1545 1545 1545 1545 1545 1545 1545 1545
1536 1537 1538 1539 1540 1541 1541 1542 1543 1543 1544 1544 1544 1544 1544 1544 1544 1544 1544 1545 1546 1546 1546 1547 1547 1547 1547 1547 1547 1546 1546 1546 1546 1546 1546 1546 1545 1545 1545 1545 1545 1545
1534 1535 1536 1537 1538 1539 1540 1541 1542 1542 1542 1543 1543 1543 1543 1543 1543 1543 1544 1544 1545 1545 1546 1546 1546 1546 1546 1546 1546 1546 1546 1546 1546 1546 1546 1546 1546 1546 1545 1545 1545 1545
1531 1532 1534 1535 1536 1537 1538 1539 1540 1541 1541 1541 1541 1542 1542 1542 1542 1543 1543 1543 1544 1545 1545 1545 1546 1546 1546 1546 1546 1546 1546 1546 1546 1546 1546 1546 1546 1546 1546 1546 1545 1545
1529 1530 1532 1533 1534 1535 1536 1537 1538 1539 1539 1540 1540 1540 1541 1541 1541 1541 1542 1542 1543 1544 1544 1544 1545 1545 1545 1545 1546 1546 1546 1546 1546 1546 1546 1546 1546 1546 1546 1546 1546 1546
1527 1529 1530 1531 1532 1533 1534 1535 1536 1537 1537 1538 1538 1539 1539 1540 1540 1540 1540 1541 1542 1542 1543 1543 1544 1544 1545 1545 1545 1545 1546 1546 1546 1546 1546 1546 1546 1546 1546 1546 1546 1546
1526 1527 1528 1529 1530 1531 1532 1532 1533 1534 1536 1536 1537 1537 1538 1538 1539 1539 1539 1540 1540 1541 1542 1542 1543 1543 1544 1544 1544 1545 1545 1546 1546 1546 1546 1546 1546 1546 1546 1546 1546 1546
1524 1525 1526 1527 1528 1528 1529 1530 1531 1532 1533 1534 1535 1535 1536 1537 1537 1538 1538 1538 1539 1540 1540 1541 1542 1542 1543 1543 1544 1544 1545 1545 1545 1546 1546 1546 1546 1546 1546 1546 1546 1546
1521 1522 1523 1524 1525 1526 1526 1527 1528 1529 1530 1532 1533 1533 1535 1536 1536 1537 1537 1537 1538 1538 1539 1540 1540 1541 1542 1542 1543 1543 1544 1544 1545 1545 1545 1546 1546 1546 1546 1546 1546 1546
1518 1519 1520 1521 1522 1523 1523 1524 1525 1526 1527 1529 1530 1531 1533 1534 1535 1536 1536 1536 1536 1537 1538 1538 1539 1540 1540 1541 1541 1542 1543 1543 1544 1544 1545 1545 1545 1545 1545 1546 1546 1546
1515 1516 1517 1518 1519 1519 1519 1520 1521 1523 1525 1527 1528 1529 1531 1532 1533 1534 1535 1535 1535 1536 1536 1537 1538 1538 1539 1540 1540 1541 1541 1542 1543 1543 1544 1544 1544 1544 1545 1545 1545 1546
1513 1513 1514 1515 1516 1516 1516 1518 1521 1523 1524 1527 1528 1528 1529 1531 1531 1532 1533 1533 1534 1534 1535 1535 1536 1537 1538 1538 1539 1539 1540 1541 1541 1542 1542 1543 1543 1544 1544 1544 1545 1545
1510 1510 1511 1511 1512 1513 1514 1516 1519 1521 1523 1525 1525 1526 1527 1528 1529 1530 1531 1532 1532 1533 1533 1534 1535 1535 1536 1537 1537 1538 1539 1539 1540 1540 1541 1542 1542 1543 1543 1544 1544 1545
Wind_Speed
10 12 11 9 8 9 9 9 9 10 12 13 14 16 16 17 16 14 12 11 10 9 8 8 8 9 10 10 11 11 12 13 13 12 11 10 10 8 6 6 7 7
11 12 12 9 7 8 9 9 10 11 12 13 14 15 16 17 16 13 10 9 9 9 8 8 9 9 10 11 11 12 13 14 14 13 11 10 9 8 7 7 7 7
12 12 12 10 8 8 9 9 10 11 12 12 13 14 14 16 15 10 8 9 9 9 8 7 8 9 11 12 12 13 13 14 14 12 10 8 7 6 7 7 8 8
13 12 12 11 9 8 9 9 9 10 11 11 12 13 14 15 14 9 8 8 9 9 8 7 8 10 11 12 13 13 14 14 12 10 8 7 6 6 6 7 8 9
14 12 13 12 9 9 9 9 9 9 10 11 12 12 13 14 13 10 8 8 9 9 8 8 9 11 12 13 14 14 14 12 10 9 8 7 6 6 6 6 7 8
14 13 14 13 10 9 9 9 9 9 10 11 12 12 13 14 12 11 9 9 9 9 8 9 10 11 12 14 14 13 11 9 8 8 7 6 6 5 5 6 6 7
14 14 14 14 11 9 9 9 9 9 10 10 11 12 13 13 12 10 10 10 10 10 9 9 10 12 13 14 14 12 9 8 8 7 6 5 5 5 5 5 5 5
14 15 16 15 12 10 9 9 9 9 10 10 11 12 13 14 12 10 10 10 11 11 10 10 11 13 14 15 14 11 8 8 8 7 6 6 5 5 5 4 5 5
15 17 17 15 13 10 9 9 8 9 10 10 11 12 14 14 12 10 10 11 11 11 11 10 11 13 15 15 13 11 9 8 8 8 7 6 6 6 5 4 4 4
16 18 18 16 14 11 9 9 8 9 10 10 11 13 14 14 12 9 9 10 11 12 11 10 11 13 15 15 13 10 9 8 8 8 7 6 6 6 5 5 5 5
17 18 18 17 14 11 10 10 9 8 10 10 11 13 14 14 11 9 9 10 11 11 10 10 10 12 15 15 12 10 8 7 6 6 5 5 4 5 5 4 5 5
18 18 17 16 15 12 11 10 9 9 10 10 11 12 13 12 10 9 9 10 10 10 10 9 9 12 14 14 11 9 7 6 5 4 4 5 4 4 3 3 4 4
19 18 16 16 15 13 11 11 10 10 10 11 11 12 12 11 10 8 8 9 9 9 8 8 9 11 14 14 11 8 6 5 4 4 5 5 5 4 4 3 3 3
19 18 16 15 16 14 12 12 11 10 11 11 11 11 10 10 9 8 8 8 8 8 7 7 9 11 13 13 10 7 6 5 4 4 4 5 5 5 4 4 3 3
18 17 16 16 17 16 14 13 12 11 11 12 12 10 9 9 9 8 8 8 8 7 7 7 8 11 12 12 9 7 6 5 4 4 4 4 4 5 5 5 4 3
17 18 17 17 17 17 16 14 14 12 12 13 13 11 9 8 8 8 7 7 8 8 7 7 8 10 11 11 9 6 5 5 4 4 3 4 4 5 5 5 5 5
17 19 19 18 17 18 17 16 15 14 13 14 14 12 9 8 7 6 6 6 7 7 6 7 8 9 10 9 8 6 5 4 4 3 3 4 4 5 5 5 6 6
17 19 19 17 17 19 19 18 16 15 15 15 15 13 10 9 7 6 5 5 6 6 5 6 7 8 8 8 7 6 5 4 4 3 3 3 3 4 4 4 4 5
17 18 18 17 17 18 19 19 19 17 16 16 15 14 12 10 8 7 6 6 6 5 5 5 6 7 7 7 7 6 5 4 3 3 2 2 2 2 2 2 2 3
18 19 18 17 17 18 19 20 20 19 18 17 16 15 14 12 10 8 7 6 6 6 5 6 6 6 7 7 7 7 6 5 3 2 2 2 1 0 0 0 1 1
18 19 20 20 19 19 20 20 20 20 19 18 17 16 15 14 12 10 8 7 8 7 6 6 6 7 7 7 7 8 7 6 5 3 1 1 1 1 2 2 2 1
18 19 21 22 22 22 22 21 21 21 20 19 18 17 16 16 15 13 10 9 9 9 8 7 7 7 8 7 8 8 8 8 6 4 3 1 0 1 2 3 3 2
18 19 21 23 24 25 24 23 22 20 20 19 18 17 17 17 16 14 12 10 10 10 9 8 8 8 8 8 8 9 9 9 8 6 5 2 1 2 3 3 3 3
16 18 20 23 25 25 26 27 25 23 22 20 18 17 17 17 16 15 14 12 11 11 10 10 9 9 9 9 9 9 9 9 9 8 7 5 3 3 3 4 4 4
15 16 18 21 23 25 28 28 26 25 23 20 19 19 18 18 18 17 16 15 13 12 12 11 11 11 11 11 10 10 10 10 10 9 8 7 5 4 4 5 5 5
15 15 16 18 20 22 26 26 25 24 22 18 17 17 17 19 20 19 19 17 14 14 14 13 13 13 12 11 11 11 11 11 11 10 9 8 6 5 5 5 6 6
Wind_Direction
292 300 305 315 318 312 309 311 314 317 321 326 328 328 331 333 333 332 328 320 318 325 334 340 341 340 339 341 344 348 349 350 350 348 345 341 337 332 328 324 324 328
283 295 303 313 319 313 310 311 314 319 324 326 328 330 336 339 338 333 324 315 315 324 333 341 342 340 338 338 341 344 346 347 346 343 342 338 333 326 321 319 319 322
274 288 299 309 318 315 310 311 316 323 327 328 331 334 339 345 346 337 322 314 317 326 334 345 347 342 338 335 336 338 339 342 343 344 347 348 343 330 318 315 315 319
269 282 294 304 313 315 310 312 319 326 329 330 334 336 340 349 351 338 319 314 323 333 339 348 347 339 337 333 331 334 337 339 345 351 360 6 4 348 328 316 313 313
266 275 286 296 306 312 309 311 318 326 332 334 335 336 340 350 350 336 316 312 326 338 342 343 340 337 336 333 331 334 335 339 348 357 4 10 6 353 336 322 314 309
263 268 278 289 299 306 305 308 316 325 334 335 333 334 339 345 346 336 319 312 322 334 337 336 336 337 334 332 334 335 336 342 349 353 357 0 358 344 330 322 315 314
262 263 270 280 291 297 299 305 314 324 332 333 330 331 335 339 340 332 321 313 317 326 332 332 333 334 333 335 340 342 343 345 343 343 343 342 342 334 324 322 320 322
262 260 262 271 282 288 292 300 312 323 328 329 327 326 330 334 332 324 314 309 312 321 327 328 329 332 336 339 344 344 341 338 332 328 326 321 320 320 318 319 319 320
261 256 257 264 274 279 285 294 306 319 325 326 325 323 326 329 327 316 305 300 305 314 319 322 328 336 342 343 343 343 336 328 323 318 315 312 308 307 308 307 305 305
262 256 253 256 265 270 278 289 299 312 321 323 322 322 323 326 323 313 300 295 299 308 314 321 331 340 345 344 344 345 337 326 320 318 315 313 307 303 302 299 294 293
264 260 253 252 258 262 268 282 295 307 315 319 320 321 322 322 319 307 297 294 298 307 313 323 335 340 344 347 347 347 344 334 329 332 335 334 323 313 307 301 297 295
264 264 256 250 253 257 261 274 291 301 309 314 316 319 321 318 313 301 291 290 296 303 310 321 331 335 342 348 350 351 354 352 351 4 13 7 356 341 328 316 309 305
263 266 261 251 250 252 256 266 281 292 301 308 312 317 318 312 307 296 284 284 290 295 303 315 324 329 338 347 353 360 9 10 10 24 31 23 12 2 352 342 333 326
261 264 262 252 247 248 252 261 272 282 292 300 306 314 313 306 301 291 279 278 281 287 298 311 318 324 333 343 351 3 15 21 18 21 36 36 22 13 3 352 350 347
258 258 258 251 244 243 247 255 265 273 283 292 300 308 307 302 296 284 274 271 272 282 296 307 314 320 328 337 345 357 10 21 25 19 31 40 33 27 21 12 6 2
253 253 253 250 244 242 244 250 258 264 274 284 292 300 301 300 296 283 269 268 271 281 294 303 309 316 324 332 338 347 2 16 27 21 17 27 35 36 33 28 24 17
249 249 250 250 246 244 243 246 253 258 265 275 284 292 295 294 293 281 264 265 273 279 291 302 308 314 321 325 328 337 352 8 18 18 11 13 26 36 36 36 34 30
245 246 248 248 246 244 243 245 250 253 258 266 275 284 288 287 288 283 265 260 269 274 284 298 305 311 316 317 317 322 334 352 5 9 11 5 11 30 39 39 42 45
243 244 244 245 246 245 245 245 246 249 253 260 269 277 282 282 283 284 271 260 262 267 272 285 295 302 308 309 304 305 312 327 343 358 10 6 3 28 34 31 41 48
241 241 240 239 241 244 246 247 245 247 250 255 261 268 275 281 283 282 275 261 255 258 262 271 282 289 296 299 293 290 293 299 306 331 14 28 41 145 220 296 338 12
245 241 239 237 238 240 244 246 246 245 246 250 255 262 271 279 281 279 273 261 252 251 254 262 271 278 284 287 283 279 276 278 284 295 328 47 68 209 222 240 260 282
257 248 243 240 239 240 241 243 244 243 243 245 251 258 264 270 276 278 276 266 256 250 249 253 259 267 273 275 272 269 267 266 270 275 272 252 160 222 231 242 248 243
271 260 252 246 243 242 241 240 240 240 239 241 246 253 259 266 274 278 277 268 259 252 248 247 251 258 264 265 261 260 262 262 263 267 270 266 239 225 235 244 240 220
281 272 264 256 250 247 245 242 240 240 239 239 245 253 260 265 271 276 274 268 261 255 250 245 246 252 256 256 254 254 256 257 258 261 263 263 260 245 238 241 236 222
283 277 272 266 259 256 253 249 247 248 246 246 250 257 262 264 266 269 271 268 262 256 252 247 245 248 252 252 249 247 249 252 252 254 255 257 262 262 249 244 238 230
282 278 275 272 268 264 260 254 250 249 247 245 247 253 260 263 263 263 265 266 263 256 252 249 247 248 250 250 246 243 244 246 247 250 251 251 257 263 257 249 242 235